Powrót do katalogu

CZ-6A DEB

AktywnySSO
NORAD 54360·DEBRIS·🇨🇳 China

Wystrzelony Nov 11, 2022 z Taiyuan Satellite Launch Center

Loading…

Następne Przeloty (najbliższe 24 godziny)

TLE

ŚwieżeSource: Space-Track

Epoka: Sep 14, 2026, 06:01 UTC

1 54360U 22151DF  26257.25126575  .00000787  00000-0  36176-3 0  9992
2 54360  98.7049 252.7032 0086380 276.1161  83.0180 14.22098742198329

Śledź CZ-6A DEB w czasie rzeczywistym z AllMySat

Download on the App Store